User: anonymous   Login
Location: Hopewell Observatory
(38.8698°N, 77.6988°W)
Time: 01:11:33
(UTC-05:00)
Language:

Cosmos 1544 - Orbit

View from above orbital plane
View from above orbital plane
View from above satellite
View from above satellite

Ground track
Ground track

The orbit data is extracted from the following two-line orbital elements,

1 14819U 84027A   19048.54424802  .00000808  00000-0  28898-4 0  9990
2 14819  82.4847 133.6316 0015050  55.2864 304.9790 15.27164306908927
Epoch (UTC): 17 February 2019 13:03:43
Eccentricity: 0.0015050
inclination: 82.4847°
perigee height: 474 km
apogee height: 494 km
right ascension of ascending node: 133.6316°
argument of perigee: 55.2864°
revolutions per day: 15.27164306
mean anomaly at epoch: 304.9790°
orbit number at epoch: 90892

The dashed part of the orbit path shows where the satellite is in the earth's shadow,  

DLR